Observations for Trim Patrick St
| Time | AQI | Temp °C | Hum % | Pres Pa | CO μg/m³ | H₂S μg/m³ | NO μg/m³ | NO₂ μg/m³ | O₃ μg/m³ | SO₂ μg/m³ | PM1 μg/m³ | PM2.5 μg/m³ | PM10 μg/m³ |
|---|---|---|---|---|---|---|---|---|---|---|---|---|---|
| Friday 28 August 2026 | |||||||||||||
| 07:40 | 2 | 16.5 | 89 | 38,459 | 0.24 | 2.91 | 2.4 | 4.35 | 32.6 | 0 | 19.14 | 25.09 | 27.6 |
| 07:39 | 2 | 16.5 | 89 | 38,459 | 0.25 | 2.75 | 2.4 | 3.12 | 38.05 | 0 | 18.29 | 24.4 | 26.84 |
| 07:37 | 2 | 16.5 | 89 | 38,459 | 0.24 | 2.6 | 2.4 | 2.61 | 35.01 | 0 | 18.29 | 24.4 | 26.84 |
| 07:36 | 2 | 16.4 | 89 | 38,459 | 0.24 | 2.23 | 2.39 | 2.24 | 32.52 | 0 | 20 | 27.12 | 29.83 |
| 07:35 | 2 | 16.4 | 89 | 38,459 | 0.25 | 3.01 | 2.41 | 2.87 | 36.32 | 0 | 18.29 | 24.4 | 26.84 |
| 07:34 | 2 | 16.4 | 89 | 38,459 | 0.25 | 3.25 | 2.45 | 6.2 | 38.29 | 0 | 19.14 | 25.76 | 28.34 |
| 07:33 | 2 | 16.4 | 89 | 38,459 | 0.25 | 2.83 | 2.48 | 11.01 | 26.72 | 0 | 17.43 | 25.08 | 27.59 |
| 07:31 | 2 | 16.4 | 89 | 38,459 | 0.23 | 3.04 | 2.46 | 3.68 | 34.51 | 0 | 17.43 | 23.03 | 25.34 |
| 07:30 | 2 | 16.4 | 89 | 38,459 | 0.23 | 2.33 | 2.43 | 4.56 | 31.45 | 0 | 16.57 | 23.03 | 25.34 |
| 07:29 | 2 | 16.4 | 89 | 38,459 | 0.22 | 2.2 | 2.42 | 3.85 | 31.35 | 0 | 15.71 | 22.35 | 24.59 |
| 07:28 | 2 | 16.4 | 89 | 38,459 | 0.22 | 2.33 | 2.42 | 9.74 | 26.85 | 0 | 14 | 19.63 | 21.59 |
| 07:27 | 2 | 16.4 | 89 | 38,459 | 0.21 | 1.97 | 2.4 | 2.82 | 34.53 | 0 | 15.71 | 21.66 | 23.83 |
| 07:26 | 2 | 16.4 | 89 | 38,459 | 0.24 | 2.47 | 2.42 | 5.06 | 29.47 | 0 | 15.71 | 23.03 | 25.34 |
| 07:24 | 2 | 16.4 | 89 | 38,459 | 0.2 | 2.39 | 2.45 | 5.36 | 33.53 | 0 | 14.86 | 20.99 | 23.09 |
| 07:23 | 2 | 16.4 | 89 | 38,459 | 0.21 | 1.63 | 2.42 | 3.68 | 33.48 | 0 | 15.71 | 23.03 | 25.34 |
| 07:22 | 2 | 16.3 | 89 | 38,459 | 0.2 | 2.21 | 2.42 | 4.41 | 33.84 | 0 | 14 | 20.31 | 22.34 |
| 07:21 | 2 | 16.3 | 89 | 38,459 | 0.22 | 2.88 | 2.5 | 12.22 | 30.32 | 0 | 15.71 | 24.4 | 26.84 |
| 07:20 | 2 | 16.4 | 89 | 38,459 | 0.22 | 2.52 | 2.45 | 13.44 | 30.43 | 0 | 13.14 | 20.99 | 23.09 |
| 07:19 | 2 | 16.3 | 89 | 38,459 | 0.22 | 2.78 | 2.42 | 10 | 29.77 | 0 | 14.86 | 21.67 | 23.84 |
| 07:18 | 2 | 16.3 | 89 | 38,459 | 0.21 | 1.79 | 2.41 | 3.08 | 33.76 | 0 | 14 | 21.66 | 23.83 |